Weather History for Sheridan, WY

Change the Weather History Date:

Friday, October 12, 2012

  Actual Average Record
Temperature  
Mean Temperature 53 °F 47 °F  
Max Temperature 79 °F 62 °F 83 °F (1991)
Min Temperature 27 °F 32 °F 17 °F (2009)
Degree Days  
Heating Degree Days 12 18  
Month to date heating degree days 234 193  
Since 1 July heating degree days 384 496  
Cooling Degree Days 0 0  
Month to date cooling degree days 0 0  
Year to date cooling degree days 664 418  
Growing Degree Days 4 (Base 50)    
Moisture  
Dew Point 34 °F    
Average Humidity 60    
Maximum Humidity 100    
Minimum Humidity 19    
Precipitation  
Precipitation 0.00 in 0.05 in 0.56 in (1970)
Month to date precipitation 0.49 0.66  
Year to date precipitation 7.48 12.14  
Sea Level Pressure  
Sea Level Pressure 29.86 in    
Wind  
Wind Speed 2 mph (WSW)    
Max Wind Speed 7 mph    
Max Gust Speed 10 mph    
Visibility 10 miles    
Events      
T = Trace of Precipitation, MM = Missing Value Source: NWS Daily Summary

Daily Weather History Graph

Daily Weather History Graph

Search for Another Location

Airport:

Trip Planner

Search our weather history database for the weather conditions in past years. The results will help you decide how hot, cold, wet, or windy it might be!

Date:

Astronomy

Oct. 12, 2012 Rise Set
Actual Time 7:20 AM MDT 6:27 PM MDT
Civil Twilight 6:50 AM MDT 6:56 PM MDT
Nautical Twilight 6:16 AM MDT 7:30 PM MDT
Astronomical Twilight 5:43 AM MDT 8:04 PM MDT
Moon 3:59 AM MDT (10/12) 4:44 PM MDT (10/12)
Length of Visible Light 12h 06m
Length of Day
11h 07m
Waning Crescent, 10% of the Moon is Illuminated
Oct 12
Waning Crescent
Oct 15
New
Oct 21
First Quarter
Oct 29
Full
Nov 6
Last Quarter

Hourly Weather History & Observations

Time (MDT) Temp. Windchill Dew Point Humidity Pressure Visibility Wind Dir Wind Speed Gust Speed Precip Events Conditions
12:53 AM 30.0 °F - 28.9 °F 96% 30.08 in 10.0 mi Calm Calm - N/A   Clear
1:53 AM 30.2 °F - 28.4 °F 93% 29.98 in 10.0 mi Calm Calm - N/A   Clear
2:53 AM 28.9 °F - 28.0 °F 96% 30.02 in 10.0 mi Calm Calm - N/A   Clear
3:53 AM 28.9 °F 22.8 °F 28.0 °F 96% 30.01 in 10.0 mi WNW 5.8 mph - N/A   Clear
4:53 AM 28.9 °F - 28.0 °F 96% 29.99 in 10.0 mi Calm Calm - N/A   Clear
5:53 AM 28.0 °F 21.7 °F 27.0 °F 96% 29.99 in 6.0 mi SSW 5.8 mph - N/A   Clear
6:53 AM 28.9 °F - 27.0 °F 92% 29.99 in 10.0 mi Calm Calm - N/A   Clear
7:53 AM 28.9 °F - 27.0 °F 92% 29.98 in 10.0 mi Calm Calm - N/A   Clear
8:53 AM 36.0 °F - 33.1 °F 89% 29.96 in 9.0 mi Calm Calm - N/A   Clear
9:53 AM 42.8 °F - 35.6 °F 76% 29.89 in 10.0 mi Calm Calm - N/A   Clear
10:53 AM 48.2 °F - 37.4 °F 66% 29.87 in 10.0 mi Calm Calm - N/A   Clear
11:53 AM 55.9 °F - 37.0 °F 49% 29.86 in 10.0 mi Calm Calm - N/A   Clear
12:53 PM 62.1 °F - 37.9 °F 41% 29.82 in 10.0 mi Calm Calm - N/A   Clear
1:53 PM 69.1 °F - 37.9 °F 32% 29.76 in 10.0 mi Calm Calm - N/A   Clear
2:53 PM 75.9 °F - 37.9 °F 25% 29.73 in 10.0 mi NNW 5.8 mph - N/A   Clear
3:53 PM 78.8 °F - 33.8 °F 20% 29.74 in 10.0 mi Variable 4.6 mph - N/A   Clear
4:53 PM 75.9 °F - 35.1 °F 23% 29.70 in 10.0 mi NNW 4.6 mph - N/A   Clear
5:53 PM 70.0 °F - 39.0 °F 32% 29.72 in 10.0 mi North 3.5 mph - N/A   Clear
6:53 PM 57.9 °F - 39.9 °F 51% 29.75 in 10.0 mi South 4.6 mph - N/A   Clear
7:53 PM 50.0 °F - 39.2 °F 66% 29.74 in 10.0 mi South 5.8 mph - N/A   Clear
8:53 PM 48.0 °F - 37.9 °F 68% 29.77 in 10.0 mi Calm Calm - N/A   Clear
9:53 PM 48.0 °F - 37.9 °F 68% 29.77 in 10.0 mi Calm Calm - N/A   Clear
10:53 PM 44.1 °F - 37.0 °F 76% 29.78 in 10.0 mi Calm Calm - N/A   Clear
11:53 PM 46.9 °F - 37.0 °F 68% 29.75 in 10.0 mi South 5.8 mph - N/A   Clear